Regional Weather Roundup
Issued by NWS

Home | Current Version | Previous Version | Graphics & Text | Print | Product List | Glossary On
Versions: 1 2 3 4 5 6 7 8 9 10 11 12 13 14 15 16 17 18 19 20 21 22 23 24 25 26 27 28 29 30 31 32 33 34 35 36 37 38 39 40 41 42 43 44 45 46 47 48 49 50
137
ASUS43 KDTX 220601
RWRMI
MICHIGAN HOURLY REGIONAL WEATHER ROUNDUP
NATIONAL WEATHER SERVICE DETROIT/PONTIAC MI
200 AM EDT FRI MAY 22 2015

NOTE: "FAIR" INDICATES FEW OR NO CLOUDS BELOW 12,000 FEET WITH NO
SIGNIFICANT WEATHER AND/OR OBSTRUCTION TO VISIBILITY.

MIZ047>049-052>055-059>063-066>070-074>076-081>083-220700-
SOUTHEAST LOWER MICHIGAN

CITY           SKY/WX    TMP DP  RH WIND       PRES   REMARKS
ADRIAN         CLOUDY    50  37  61 W5        30.02S
6HR MIN TEMP:  49; 6HR MAX TEMP:  62;

ALMA           MOCLDY    49  28  44 N5        30.04R
ANN ARBOR      CLOUDY    55  38  52 W9        29.99F
BAD AXE        MOCLDY    48  29  47 N10       30.00R
CARO           MOCLDY    51  31  45 N12       29.99R
DETROIT CITY   CLOUDY    56  35  45 W6        29.98F
6HR MIN TEMP:  55; 6HR MAX TEMP:  63;

DETROIT        CLOUDY    55  37  50 SW7       30.00S
6HR MIN TEMP:  55; 6HR MAX TEMP:  63;

FLINT          CLOUDY    56  40  55 NW12      30.00R
6HR MIN TEMP:  55; 6HR MAX TEMP:  63;

GROSSE ILE     MOCLDY    55  36  47 SW6       29.98F
HILLSDALE      MOCLDY    57  33  41 W8        30.02S
6HR MIN TEMP:  53; 6HR MAX TEMP:  60;

HOWELL         CLOUDY    55  37  51 W9        30.00R

CITY           SKY/WX    TMP DP  RH WIND       PRES   REMARKS
JACKSON        CLOUDY    54  37  52 W6        30.01R
6HR MIN TEMP:  49; 6HR MAX TEMP:  59;

LAMBERTVILLE   MOCLDY    54  34  47 SW3       30.01F
LANSING        CLOUDY    54  40  59 NW6       30.02R
6HR MIN TEMP:  54; 6HR MAX TEMP:  61;

LAPEER         CLOUDY    54  38  54 N6        29.99R
MASON          RAIN      52  40  62 W7        30.01R
MONROE         MOCLDY    54  39  58 SW7       29.99S
MT. CLEMENS    MOCLDY    56  37  49 W8        29.95S
6HR MIN TEMP:  55; 6HR MAX TEMP:  63;

PONTIAC        CLOUDY    55  37  50 W9        29.98S
6HR MIN TEMP:  54; 6HR MAX TEMP:  61;

PORT HOPE        N/A     50  35  56 NW14G23   29.97
6HR MIN TEMP:  49; 6HR MAX TEMP:  66;

PORT HURON     MOCLDY    46  36  66 NE8       29.99S
TRI CITIES     CLOUDY    51  31  46 N10       30.02R
6HR MIN TEMP:  51; 6HR MAX TEMP:  65;

MIDLAND        CLOUDY    47  33  59 CALM      30.02R
TROY           CLOUDY    58  35  43 W3        30.00S
SAGINAW HB     MOCLDY    50  30  46 NW10      30.01S
$$
MIZ043>046-050>051-056>058-064>065-071>073-077>080-220700-
SOUTHWEST LOWER MICHIGAN

CITY           SKY/WX    TMP DP  RH WIND       PRES   REMARKS
BATTLE CREEK   MOCLDY    54  38  54 W6        30.02R
6HR MIN TEMP:  51; 6HR MAX TEMP:  61;

BENTON HARBOR  CLOUDY    55  41  59 W9        30.05R
6HR MIN TEMP:  52; 6HR MAX TEMP:  60;

BIG RAPIDS     MOCLDY    47  22  36 NW3       30.03S
6HR MIN TEMP:  47; 6HR MAX TEMP:  60;

COLDWATER      CLOUDY    51  35  52 SW6       30.01F
6HR MIN TEMP:  49; 6HR MAX TEMP:  59;

FREMONT        MOCLDY    49  21  32 NE6       30.04R
HOLLAND        MOCLDY    52  40  63 N3        30.04R
6HR MIN TEMP:  52; 6HR MAX TEMP:  60;

GRAND RAPIDS   CLOUDY    53  45  74 N7        30.03R
6HR MIN TEMP:  53; 6HR MAX TEMP:  61; 6HR PCP: TRACE;

IONIA          MOCLDY    54  33  45 N10G16    30.02R
KALAMAZOO      MOCLDY    58  36  43 W8        30.02R
6HR MIN TEMP:  51; 6HR MAX TEMP:  62;

LUDINGTON      CLEAR     40  31  67 CALM      30.06R
6HR MIN TEMP:  40; 6HR MAX TEMP:  58;

MARSHALL       MOCLDY    54  36  51 NW5       30.02R
MOUNT PLEASANT CLOUDY    49  26  40 NW3       30.03S
6HR MIN TEMP:  49; 6HR MAX TEMP:  62;

MUSKEGON       MOCLDY    50  37  61 E6        30.05R
6HR MIN TEMP:  50; 6HR MAX TEMP:  55; 6HR PCP: TRACE;

SOUTH HAVEN    RAIN      52  44  74 NW5       30.05R
$$
MIZ016>042-220700-
NORTHERN LOWER MICHIGAN

CITY           SKY/WX    TMP DP  RH WIND       PRES   REMARKS
ALPENA         CLEAR     42  26  53 NW6       30.00R
6HR MIN TEMP:  42; 6HR MAX TEMP:  59;

BEAVER ISLAND  CLEAR     40  30  66 N6        30.06R
6HR MIN TEMP:  40; 6HR MAX TEMP:  50;

BELLAIRE       CLEAR     31  30  94 CALM      30.05S
6HR MIN TEMP:  31; 6HR MAX TEMP:  56;

CADILLAC       CLEAR     37  25  61 N3        30.03S
CHARLEVOIX     CLEAR     40  29  64 NW7       30.07S
6HR MIN TEMP:  39; 6HR MAX TEMP:  49;

FRANKFORT      CLEAR     38  28  67 CALM      30.07R
GAYLORD        CLEAR     39  27  62 W5        30.01S
6HR MIN TEMP:  37; 6HR MAX TEMP:  53;

GRAYLING       CLEAR     34  27  75 CALM      30.04R
HARBOR SPRINGS CLEAR     37  30  75 NW3       30.04R
HOUGHTON LAKE  CLEAR     40  26  57 NW6       30.03S
6HR MIN TEMP:  40; 6HR MAX TEMP:  58;

MANISTEE       CLEAR     36  28  75 CALM      30.06S
OSCODA         CLEAR     43  27  52 NW8       29.98S
PELLSTON       CLEAR     39  28  64 NW8       30.04R WCI  33
6HR MIN TEMP:  36; 6HR MAX TEMP:  54;

ROGERS CITY    CLEAR     44  28  53 NW9G17    30.02R
TRAVERSE CITY  CLEAR     36  30  79 CALM      30.05R
6HR MIN TEMP:  35; 6HR MAX TEMP:  54;

$$
MIZ007>008-015-220700-
EASTERN UPPER MICHIGAN

CITY           SKY/WX    TMP DP  RH WIND       PRES   REMARKS
KINROSS        CLEAR     37  30  75 NW6       30.03R WCI  33
6HR MIN TEMP:  37; 6HR MAX TEMP:  50;

NEWBERRY       CLEAR     37  28  67 NW6       30.05R WCI  33
S. S. MARIE    CLEAR     41  25  53 N3        30.02R
6HR MIN TEMP:  38; 6HR MAX TEMP:  47;

$$
MIZ004>006-011>014-085-220700-
CENTRAL UPPER MICHIGAN

CITY           SKY/WX    TMP DP  RH WIND       PRES   REMARKS
MANISTIQUE     CLEAR     35  22  60 N6        30.06S WCI  30
6HR MIN TEMP:  34; 6HR MAX TEMP:  53;

ESCANABA       CLEAR     36  25  64 CALM      30.07R
6HR MIN TEMP:  36; 6HR MAX TEMP:  57;

MENOMINEE      CLEAR     37  32  81 CALM      30.08S
6HR MIN TEMP:  37; 6HR MAX TEMP:  55;

SAWYER-GWINN   CLEAR     40  14  35 N7        30.08R WCI  35
$$
MIZ001>003-009>011-084-220700-
WESTERN UPPER MICHIGAN

CITY           SKY/WX    TMP DP  RH WIND       PRES   REMARKS
IRON MOUNTAIN  CLEAR     35  26  69 CALM      30.08R
6HR MIN TEMP:  35; 6HR MAX TEMP:  62;

HOUGHTON       CLEAR     33  25  72 CALM      30.09R
6HR MIN TEMP:  32; 6HR MAX TEMP:  53;

COPPER HARBOR    N/A     41  29  62 CALM      30.10R
6HR MIN TEMP:  37; 6HR MAX TEMP:  50;

IRONWOOD       CLEAR     36  34  93 CALM      30.06S
6HR MIN TEMP:  36; 6HR MAX TEMP:  61;

$$

ABBREVIATIONS USED IN REMARKS
   TC - TEMPERATURE IN CELSIUS
  WCI - WIND CHILL INDEX
   HX - HEAT INDEX
  VSB - VISIBILITY




USA.gov is the U.S. government's official web portal to all federal, state and local government web resources and services.